Weather History for Slayton, MN

Change the Weather History Date:

Wednesday, January 2, 2013

  Actual Average (KOTG) Record (KOTG)
Temperature  
Mean Temperature 20 °F -  
Max Temperature 29 °F 23 °F 46 °F (2004)
Min Temperature 12 °F 9 °F -25 °F (1974)
Degree Days  
Heating Degree Days 44    
Moisture  
Dew Point 20 °F    
Average Humidity 94    
Maximum Humidity 100    
Minimum Humidity 82    
Precipitation  
Precipitation 0.00 in - - ()
Sea Level Pressure  
Sea Level Pressure 29.98 in    
Wind  
Wind Speed 11 mph (West)    
Max Wind Speed 18 mph    
Max Gust Speed 23 mph    
Visibility 6 miles    
Events Fog , Snow    
Averages and records for this station are not official NWS values.
T = Trace of Precipitation, MM = Missing Value Source: NWS Daily Summary

Daily Weather History Graph

Daily Weather History Graph

Search for Another Location

Airport:

Trip Planner

Search our weather history database for the weather conditions in past years. The results will help you decide how hot, cold, wet, or windy it might be!

Date:

Astronomy

Jan. 02, 2013 Rise Set
Actual Time 7:57 AM CST 4:57 PM CST
Civil Twilight 7:25 AM CST 5:29 PM CST
Nautical Twilight 6:48 AM CST 6:06 PM CST
Astronomical Twilight 6:13 AM CST 6:41 PM CST
Moon 10:43 PM CST (1/2) 10:28 AM CST (1/2)
Length of Visible Light 10h 04m
Length of Day
8h 59m
Waning Gibbous, 75% of the Moon is Illuminated
Jan 2
Waning Gibbous
Jan 4
Last Quarter
Jan 11
New
Jan 18
First Quarter
Jan 26
Full

Hourly Weather History & Observations

Time (CST) Temp. Windchill Dew Point Humidity Pressure Visibility Wind Dir Wind Speed Gust Speed Precip Events Conditions
12:15 AM 17.4 °F 2.9 °F 16.7 °F 97% 29.97 in 0.8 mi SSW 15.0 mph - N/A   Overcast
12:35 AM 17.2 °F 2.2 °F 16.5 °F 97% 29.96 in 0.5 mi SW 16.1 mph - N/A Fog Light Freezing Fog
12:55 AM 17.2 °F 2.7 °F 16.5 °F 97% 29.95 in 0.8 mi SW 15.0 mph - N/A   Overcast
1:15 AM 16.5 °F 3.0 °F 15.6 °F 96% 29.95 in 0.5 mi SSW 12.7 mph - N/A Fog Light Freezing Fog
1:35 AM 15.8 °F 2.1 °F 14.9 °F 96% 29.94 in 0.5 mi SW 12.7 mph - N/A Fog Light Freezing Fog
1:55 AM 15.8 °F 1.4 °F 14.9 °F 96% 29.94 in 0.8 mi SSW 13.8 mph - N/A   Overcast
2:15 AM 15.8 °F 1.4 °F 14.9 °F 96% 29.94 in 0.8 mi SSW 13.8 mph - N/A   Overcast
2:34 AM 15.8 °F 2.1 °F 14.9 °F 96% 29.94 in 0.8 mi SSW 12.7 mph - N/A   Overcast
2:55 AM 15.8 °F 3.4 °F 14.9 °F 96% 29.94 in 1.0 mi SSW 10.4 mph - N/A   Overcast
3:15 AM 15.3 °F 3.5 °F 14.0 °F 95% 29.94 in 0.8 mi SW 9.2 mph - N/A   Overcast
3:35 AM 15.4 °F 3.8 °F 14.5 °F 96% 29.93 in 1.0 mi SW 9.2 mph - N/A   Overcast
3:55 AM 15.4 °F 3.8 °F 14.5 °F 96% 29.93 in 1.0 mi SW 9.2 mph - N/A   Overcast
4:14 AM 14.9 °F 3.1 °F 14.0 °F 96% 29.93 in 1.5 mi SW 9.2 mph - N/A   Overcast
4:35 AM 14.9 °F 2.3 °F 13.8 °F 95% 29.92 in 1.5 mi WSW 10.4 mph - N/A   Overcast
4:55 AM 14.7 °F 3.8 °F 13.6 °F 95% 29.92 in 1.8 mi SW 8.1 mph - N/A   Overcast
5:15 AM 14.0 °F 5.1 °F 13.1 °F 96% 29.91 in 2.5 mi SW 5.8 mph - N/A   Overcast
5:35 AM 12.9 °F 5.2 °F 11.5 °F 94% 29.91 in 3.0 mi SW 4.6 mph - N/A   Mostly Cloudy
6:15 AM 13.1 °F 2.8 °F 12.0 °F 95% 29.91 in 5.0 mi WSW 6.9 mph - N/A   Mostly Cloudy
6:35 AM 13.5 °F 3.3 °F 12.2 °F 95% 29.91 in 7.0 mi West 6.9 mph - N/A   Mostly Cloudy
6:55 AM 14.9 °F 3.1 °F 14.0 °F 96% 29.90 in 10.0 mi WSW 9.2 mph - N/A   Overcast
7:15 AM 15.6 °F 3.2 °F 14.7 °F 96% 29.91 in 10.0 mi West 10.4 mph - N/A   Overcast
7:35 AM 16.2 °F 5.5 °F 15.1 °F 95% 29.91 in 7.0 mi West 8.1 mph - N/A   Overcast
7:55 AM 16.7 °F 6.2 °F 15.8 °F 96% 29.92 in 7.0 mi West 8.1 mph - N/A   Overcast
8:15 AM 17.2 °F 6.0 °F 16.5 °F 97% 29.92 in 10.0 mi West 9.2 mph - N/A   Overcast
8:34 AM 17.6 °F 7.3 °F 16.7 °F 96% 29.92 in 5.0 mi West 8.1 mph - N/A Snow Light Snow
8:55 AM 18.0 °F 6.9 °F 17.2 °F 97% 29.93 in 3.0 mi West 9.2 mph - N/A Snow Light Snow
9:15 AM 18.5 °F 8.4 °F 18.1 °F 98% 29.93 in 4.0 mi West 8.1 mph - N/A Snow Light Snow
9:35 AM 19.6 °F 9.7 °F 19.2 °F 99% 29.93 in 5.0 mi West 8.1 mph - N/A   Overcast
9:55 AM 20.5 °F 10.8 °F 20.3 °F 99% 29.94 in 7.0 mi West 8.1 mph - N/A   Overcast
10:14 AM 21.2 °F 12.6 °F 20.8 °F 99% 29.95 in 7.0 mi West 6.9 mph - N/A   Overcast
10:35 AM 22.1 °F 13.7 °F 21.9 °F 99% 29.95 in 5.0 mi West 6.9 mph - N/A   Overcast
10:55 AM 23.0 °F 14.7 °F 22.8 °F 99% 29.95 in 2.5 mi West 6.9 mph - N/A   Overcast
11:15 AM 23.9 °F 15.8 °F 23.9 °F 100% 29.95 in 3.0 mi West 6.9 mph - N/A   Overcast
11:35 AM 25.3 °F 16.7 °F 25.3 °F 100% 29.94 in 4.0 mi West 8.1 mph - N/A   Overcast
11:55 AM 26.1 °F 16.8 °F 26.1 °F 100% 29.94 in 4.0 mi WNW 9.2 mph - N/A   Overcast
12:15 PM 26.4 °F 17.3 °F 26.4 °F 100% 29.94 in 5.0 mi WNW 9.2 mph - N/A   Overcast
12:35 PM 26.6 °F 18.2 °F 26.6 °F 100% 29.94 in 10.0 mi West 8.1 mph - N/A   Overcast
12:55 PM 27.3 °F 19.1 °F 27.1 °F 99% 29.94 in 10.0 mi WNW 8.1 mph - N/A   Overcast
1:15 PM 27.7 °F 19.6 °F 27.0 °F 97% 29.94 in 10.0 mi West 8.1 mph - N/A   Overcast
1:35 PM 28.2 °F 18.9 °F 27.0 °F 95% 29.94 in 10.0 mi WNW 10.4 mph - N/A   Overcast
1:55 PM 28.4 °F 19.1 °F 27.0 °F 94% 29.94 in 10.0 mi WNW 10.4 mph - N/A   Overcast
2:15 PM 28.9 °F 19.2 °F 27.1 °F 93% 29.94 in 10.0 mi WNW 11.5 mph - N/A   Overcast
2:36 PM 29.3 °F 19.6 °F 27.1 °F 92% 29.95 in 10.0 mi WNW 11.5 mph - N/A   Overcast
2:55 PM 29.3 °F 18.2 °F 26.4 °F 89% 29.96 in 10.0 mi WNW 15.0 mph - N/A   Overcast
3:15 PM 28.0 °F 16.1 °F 24.6 °F 87% 29.97 in 10.0 mi NW 16.1 mph - N/A   Overcast
3:35 PM 27.5 °F 14.6 °F 23.9 °F 86% 29.98 in 5.0 mi NW 18.4 mph 23.0 mph N/A   Overcast
3:55 PM 27.5 °F 16.3 °F 23.7 °F 86% 29.99 in 10.0 mi NW 13.8 mph - N/A   Overcast
4:14 PM 26.8 °F 16.5 °F 22.8 °F 85% 30.00 in 10.0 mi NNW 11.5 mph - N/A   Scattered Clouds
4:35 PM 25.5 °F 16.2 °F 20.8 °F 82% 30.00 in 10.0 mi NW 9.2 mph - N/A   Mostly Cloudy
4:55 PM 25.2 °F 15.7 °F 20.5 °F 82% 30.01 in 10.0 mi NW 9.2 mph - N/A   Overcast
5:15 PM 25.2 °F 15.7 °F 21.2 °F 85% 30.02 in 10.0 mi NW 9.2 mph - N/A   Overcast
5:35 PM 24.8 °F 15.3 °F 21.2 °F 86% 30.02 in 10.0 mi NW 9.2 mph - N/A   Overcast
5:54 PM 24.8 °F 17.9 °F 21.6 °F 87% 30.04 in 10.0 mi NW 5.8 mph - N/A   Overcast
6:15 PM 24.8 °F 19.1 °F 21.7 °F 88% 30.04 in 10.0 mi NW 4.6 mph - N/A   Overcast
6:35 PM 24.3 °F 19.9 °F 21.7 °F 90% 30.05 in 10.0 mi WNW 3.5 mph - N/A Snow Light Snow
6:55 PM 24.3 °F 19.9 °F 22.1 °F 91% 30.05 in 10.0 mi NW 3.5 mph - N/A   Overcast
7:15 PM 24.4 °F 18.6 °F 22.5 °F 92% 30.06 in 10.0 mi WNW 4.6 mph - N/A   Overcast
7:35 PM 24.4 °F 18.6 °F 22.5 °F 92% 30.06 in 10.0 mi WNW 4.6 mph - N/A Snow Light Snow
7:55 PM 24.6 °F 17.7 °F 22.8 °F 93% 30.06 in 10.0 mi West 5.8 mph - N/A   Overcast
8:15 PM 24.6 °F 20.3 °F 22.6 °F 92% 30.06 in 10.0 mi West 3.5 mph - N/A   Overcast
8:35 PM 24.6 °F 18.8 °F 22.6 °F 92% 30.07 in 10.0 mi NNW 4.6 mph - N/A   Overcast
8:55 PM 24.3 °F 19.9 °F 22.8 °F 94% 30.08 in 10.0 mi North 3.5 mph - N/A   Overcast
9:15 PM 23.9 °F 13.5 °F 22.8 °F 96% 30.09 in 10.0 mi NNW 10.4 mph - N/A   Overcast
9:35 PM 23.5 °F 11.3 °F 21.9 °F 94% 30.10 in 10.0 mi NW 13.8 mph - N/A   Overcast
9:55 PM 22.6 °F 10.1 °F 21.2 °F 94% 30.11 in 4.0 mi NNW 13.8 mph 21.9 mph N/A Snow Light Snow
10:14 PM 22.5 °F 8.9 °F 21.6 °F 96% 30.11 in 4.0 mi NNW 16.1 mph - N/A Snow Light Snow
10:35 PM 20.3 °F 6.6 °F 18.9 °F 94% 30.12 in 4.0 mi NNW 15.0 mph 19.6 mph N/A Snow Light Snow
11:15 PM 17.8 °F 4.0 °F 15.3 °F 90% 30.14 in 10.0 mi NNW 13.8 mph - N/A   Overcast
11:35 PM 16.5 °F 3.6 °F 13.8 °F 89% 30.15 in 10.0 mi NNW 11.5 mph - N/A   Overcast
11:55 PM 16.2 °F 3.2 °F 13.5 °F 89% 30.15 in 10.0 mi NW 11.5 mph - N/A   Overcast